Back to catalog

STARLINK-37744

AliveCommunicationsSSO
NORAD 69347·PAYLOAD·🇺🇸 United States

Launched Jun 3, 2026 from Vandenberg Space Force Base

Loading…

Next Passes (next 24 hours)

TLE

FreshSource: CelesTrak SupGP

Epoch: Sep 14, 2026, 23:07 UTC

1 69347C 26122U   26257.96368056  .00037178  00000+0  11542-2 0  2574
2 69347  97.2826 286.6998 0001019  93.6161 254.4669 15.33418641    13

Track STARLINK-37744 in real time with AllMySat

Download on the App Store